Regional Weather Roundup
Issued by NWS

Home | Current Version | Previous Version | Graphics & Text | Print | Product List | Glossary On
Versions: 1 2 3 4 5 6 7 8 9 10 11 12 13 14 15 16 17 18 19 20 21 22 23 24 25 26 27 28 29 30 31 32 33 34 35 36 37 38 39 40 41 42 43 44 45 46 47 48 49 50
000
ASUS43 KLSX 171107
RWRMO

WEATHER SUMMARY FOR MISSOURI
NATIONAL WEATHER SERVICE SPRINGFIELD MO
600 AM CDT THU APR 17 2014

NOTE: "FAIR" INDICATES FEW OR NO CLOUDS BELOW 12,000 FEET WITH NO
       SIGNIFICANT WEATHER AND/OR OBSTRUCTIONS TO VISIBILITY.
       CURRENT SKY AND/OR WEATHER CONDITIONS ARE NOT AVAILABLE FOR
       CHILLICOTHE AND FARMINGTON.

MOZ001>031-035>038-043-044-053-054-171200-
...NORTHERN AND WESTERN MISSOURI...

CITY           SKY/WX    TMP DP  RH WIND       PRES   REMARKS
KANSAS CTY INT CLOUDY    38  30  73 NW10      30.19R
KANSAS C DTWN  CLOUDY    41  31  67 N9        30.19R
LEE`S SUMMIT   CLOUDY    39  31  72 NW7       30.19R
ST JOSEPH      CLOUDY    37  29  72 N16       30.21S WCI  28
CHILLICOTHE      N/A     40  32  73 NW8       30.19R
KIRKSVILLE     CLOUDY    40  34  79 NW13      30.15R

$$
MOZ066>068-077>081-088>096-101>105-171200-
...SOUTHWEST MISSOURI...

CITY           SKY/WX    TMP DP  RH WIND       PRES   REMARKS
SPRINGFIELD    PTCLDY    40  31  70 SE7       30.15R
JOPLIN         MOCLDY    42  34  73 CALM      30.16R

$$
MOZ032>034-039>042-045>050-055>058-069>072-171200-
...CENTRAL MISSOURI...

CITY           SKY/WX    TMP DP  RH WIND       PRES   REMARKS
COLUMBIA       PTCLDY    43  31  62 SW7       30.15R
JEFFERSON CITY PTCLDY    46  31  55 S6        30.16R
ROLLA          CLEAR     42  31  64 S12       30.14R
SEDALIA        CLOUDY    42  35  76 N8        30.18R
WHITEMAN AFB   CLOUDY    41  32  70 NW9       30.18R
OSAGE BEACH    PTCLDY    39  28  65 CALM      30.17R

$$
MOZ051-052-059>065-171200-
...EAST CENTRAL MISSOURI...

CITY           SKY/WX    TMP DP  RH WIND       PRES   REMARKS
ST LOUIS INTL  PTCLDY    46  29  51 S3        30.17R
SPIRIT OF STL  CLEAR     37  30  75 CALM      30.16R
ST CHARLES     CLEAR     40  31  70 E5        30.16R

$$
MOZ072>076-082>087-097>100-106>115-171200-
...SOUTH CENTRAL AND SOUTHEAST MISSOURI...

CITY           SKY/WX    TMP DP  RH WIND       PRES   REMARKS
CAPE GIRARDEAU CLEAR     35  32  88 CALM      30.22R
FARMINGTON     PTCLDY    43  28  56 S5        30.20S
POPLAR BLUFF   CLEAR     37  32  82 CALM      30.21R
WEST PLAINS    CLEAR     41  30  65 SW5       30.19R

$$



USA.gov is the U.S. government's official web portal to all federal, state and local government web resources and services.